カタログに戻る

WESTFORD NEEDLES

運用中PO
NORAD 18688·DEBRIS·🇺🇸 United States

打ち上げ May 9, 1963 から Vandenberg Space Force Base

Loading…

次のパス (今後24時間)

TLE

古いSource: Space-Track

元期: Aug 25, 2026, 12:50 UTC

1 18688U 63014DM  26237.53526406 -.00000012  00000-0 -70224-2 0  9998
2 18688  87.3632 196.0742 0028641  47.6574 312.6700  8.65107462125337

AllMySatでWESTFORD NEEDLESをリアルタイム追跡

Download on the App Store